sat.trackr.live / text

‹ back to catalog

STARLINK-33649

NORAD 63416 · 2025-065T

PAYLOAD ACTIVE UNKNOWN

§ Identity

Operator
Country
US
Launch date
2025-03-31
Launch site
AFETR
Launch vehicle
Mass (kg)
RCS (m²)

Purposes: comms

External: N2YO · Heavens-Above · Gunter

§ Orbital elements

Epoch: 2026-09-20T19:30:59.974560Z

Period
94.27 min
Inclination
43.0025°
Eccentricity
0.0000662
Mean motion
15.27585726 rev/d
Perigee alt
482.6 km
Apogee alt
483.5 km
Semi-major
6,861.2 km
B*
4.9450e-4
RAAN
84.8816°
Arg perigee
278.3836°
Mean anomaly
81.6941°
Rev number
8,268

§ Raw data

STARLINK-336491 63416U 25065T   26263.81319415  .00013372  00000+0  49450-3 0  99992 63416  43.0025  84.8816 0000662 278.3836  81.6941 15.27585726 82683

JSON: /api/v1/satellites/63416 · /tle

For live sub-satellite position, see the globe view (requires WebGL).

§ Visibility from observer

Set your observer location to see the next 7 days of passes ≥ 10°. The values pass through the URL so the page stays shareable.

No JS? Fill the form by hand. The geolocation button needs JavaScript.